EW1379 Weather Reports


Display with metric or nautical units.
time (UTC)temp
F
wind
direction
speed
MPH
gust
MPH
rain 1hr
in
rain 24hr
in
rain mn
in
humidity
%
barometer
mb
20260902203935 85 211 1.0 2.0 0.00 0.20 0.20 76 1013.6
20260902203412 85 219 0.0 2.0 0.00 0.20 0.20 77 1013.5
20260902202911 85 218 0.0 2.0 0.00 0.20 0.20 77 1013.8
20260902202417 85 241 1.0 3.0 0.00 0.20 0.20 77 1013.9
20260902201910 85 213 0.0 3.0 0.00 0.20 0.20 76 1013.9
20260902201420 85 254 0.0 0.0 0.00 0.20 0.20 77 1013.9
20260902200912 85 254 0.0 2.0 0.00 0.20 0.20 77 1013.9
20260902200446 85 254 0.0 2.0 0.00 0.20 0.20 78 1014.0
20260902195937 85 246 0.0 5.0 0.00 0.20 0.20 77 1014.0
20260902195427 85 246 0.0 5.0 0.00 0.20 0.20 76 1013.9
20260902194916 85 136 0.0 0.0 0.00 0.20 0.20 77 1014.0
20260902194422 85 136 0.0 0.0 0.00 0.20 0.20 76 1013.9
20260902193927 85 136 0.0 2.0 0.00 0.20 0.20 76 1014.0
20260902193412 85 136 0.0 2.0 0.00 0.20 0.20 76 1013.9
20260902192917 85 122 0.0 2.0 0.00 0.20 0.20 76 1013.8
20260902192425 85 122 0.0 1.0 0.00 0.20 0.20 76 1013.7
20260902191913 85 122 0.0 0.0 0.00 0.20 0.20 76 1013.5
20260902191413 85 122 0.0 1.0 0.00 0.20 0.20 75 1013.5
20260902190909 85 121 0.0 1.0 0.00 0.20 0.20 75 1013.3
20260902190412 85 121 0.0 1.0 0.00 0.20 0.20 76 1013.4
20260902185916 85 121 0.0 5.0 0.00 0.20 0.20 75 1013.4
20260902185411 85 121 0.0 5.0 0.00 0.20 0.20 75 1013.5
20260902184921 85 132 0.0 0.0 0.00 0.20 0.20 75 1013.4
20260902184434 85 132 0.0 0.0 0.00 0.20 0.20 75 1013.4
20260902183925 85 132 0.0 0.0 0.00 0.20 0.20 75 1013.5
20260902183448 85 132 0.0 0.0 0.00 0.20 0.20 75 1013.6
20260902182926 85 132 0.0 4.0 0.00 0.20 0.20 76 1013.7
20260902182411 85 132 0.0 4.0 0.00 0.20 0.20 75 1013.8
20260902181918 85 128 1.0 3.0 0.00 0.20 0.20 74 1014.0
20260902181427 85 134 0.0 3.0 0.00 0.20 0.20 76 1014.2
20260902180940 85 135 0.0 2.0 0.00 0.20 0.20 76 1014.2
20260902180409 85 160 0.0 1.0 0.00 0.20 0.20 74 1014.2
20260902175924 84 138 0.0 1.0 0.00 0.20 0.20 75 1014.4
20260902175428 84 71 0.0 1.0 0.00 0.20 0.20 75 1014.5
20260902174921 84 235 0.0 2.0 0.00 0.20 0.20 76 1014.6
20260902174423 84 235 0.0 2.0 0.00 0.20 0.20 75 1014.6
20260902173908 84 235 0.0 3.0 0.00 0.20 0.20 76 1014.6
20260902173431 83 241 0.0 3.0 0.00 0.20 0.20 75 1014.6
20260902172913 83 180 0.0 3.0 0.00 0.20 0.20 76 1014.6
20260902172420 83 148 0.0 7.0 0.00 0.20 0.20 77 1014.5
20260902171927 83 165 2.0 7.0 0.00 0.20 0.20 78 1014.5
20260902171417 82 103 1.0 9.0 0.00 0.20 0.20 79 1014.6
20260902170924 82 126 3.0 10.0 0.00 0.20 0.20 79 1014.7
20260902170422 82 143 5.0 11.0 0.00 0.20 0.20 80 1014.7
20260902165928 82 154 1.0 5.0 0.00 0.20 0.20 81 1014.8
20260902165454 82 155 0.0 0.0 0.00 0.20 0.20 83 1014.9
20260902164933 81 155 0.0 1.0 0.00 0.20 0.20 83 1014.9
20260902164412 80 155 0.0 4.0 0.00 0.20 0.20 86 1015.0
20260902163930 80 146 1.0 7.0 0.00 0.20 0.20 89 1014.9
20260902163411 79 126 2.0 8.0 0.00 0.20 0.20 91 1014.9
20260902162906 78 138 1.0 9.0 0.00 0.20 0.20 92 1015.1
20260902162416 78 124 1.0 9.0 0.00 0.20 0.20 93 1015.1
20260902161946 77 123 1.0 9.0 0.00 0.20 0.20 94 1015.2
20260902161409 77 140 3.0 9.0 0.00 0.20 0.20 95 1015.3
20260902160936 76 119 2.0 8.0 0.00 0.20 0.20 96 1015.3
20260902160409 76 130 0.0 5.0 0.00 0.20 0.20 97 1015.2
20260902155916 75 128 2.0 7.0 0.00 0.20 0.20 97 1015.2
20260902155408 75 138 3.0 9.0 0.00 0.20 0.20 97 1015.5
20260902154914 75 125 2.0 7.0 0.00 0.20 0.20 97 1015.4
20260902154431 74 121 4.0 8.0 0.00 0.20 0.20 97 1015.6
20260902153932 74 88 5.0 8.0 0.00 0.20 0.20 97 1015.5
20260902153416 74 103 3.0 9.0 0.00 0.20 0.20 97 1015.5
20260902152951 74 149 6.0 9.0 0.00 0.20 0.20 97 1015.4
20260902152441 74 120 1.0 8.0 0.00 0.20 0.20 97 1015.5
20260902151927 74 107 3.0 8.0 0.00 0.20 0.20 97 1015.5
20260902151426 74 116 4.0 7.0 0.00 0.20 0.20 97 1015.5
20260902150918 74 142 2.0 7.0 0.00 0.20 0.20 97 1015.4
20260902150426 74 148 0.0 6.0 0.00 0.20 0.20 98 1015.3
20260902145927 74 132 1.0 6.0 0.00 0.20 0.20 97 1015.2
20260902145414 73 344 3.0 8.0 0.00 0.20 0.20 97 1015.0
20260902144940 73 12 5.0 8.0 0.00 0.20 0.20 98 1014.9
20260902144433 73 36 3.0 5.0 0.00 0.20 0.20 97 1015.2
20260902143933 72 89 3.0 5.0 0.00 0.20 0.20 97 1015.4
20260902143411 72 128 1.0 5.0 0.01 0.20 0.20 97 1015.5
20260902142912 72 78 1.0 5.0 0.02 0.20 0.20 97 1015.9
20260902142406 72 18 1.0 7.0 0.08 0.20 0.20 97 1016.1
20260902141926 72 31 1.0 7.0 0.09 0.20 0.20 97 1016.1
20260902141424 72 48 2.0 4.0 0.10 0.20 0.20 97 1016.2
20260902140934 72 28 2.0 7.0 0.12 0.20 0.20 97 1016.5
20260902140406 72 344 4.0 7.0 0.14 0.20 0.20 97 1016.7
20260902135914 71 108 0.0 0.0 0.15 0.20 0.20 97 1016.6
20260902135426 71 109 0.0 0.0 0.16 0.20 0.20 97 1016.2
20260902134926 71 109 0.0 0.0 0.19 0.20 0.20 97 1016.3
20260902134446 71 109 0.0 0.0 0.19 0.20 0.20 97 1016.1
20260902133915 71 109 0.0 0.0 0.19 0.20 0.20 97 1016.1
20260902133413 71 109 0.0 0.0 0.19 0.19 0.19 97 1016.0
20260902132931 71 355 0.0 0.0 0.17 0.17 0.17 97 1016.0
20260902132414 71 355 0.0 0.0 0.12 0.12 0.12 97 1016.3
20260902131921 71 355 0.0 0.0 0.11 0.11 0.11 97 1016.5
20260902131449 71 355 0.0 0.0 0.10 0.10 0.10 97 1016.4
20260902130920 71 355 0.0 0.0 0.08 0.08 0.08 97 1016.3
20260902130423 71 355 0.0 0.0 0.06 0.06 0.06 97 1016.2
20260902125927 71 355 0.0 0.0 0.05 0.05 0.05 97 1016.2
20260902125437 71 355 0.0 0.0 0.04 0.04 0.04 97 1016.0
20260902124925 71 355 0.0 0.0 0.01 0.01 0.01 97 1016.0
20260902124426 71 355 0.0 0.0 0.01 0.01 0.01 96 1015.5
20260902123907 71 355 0.0 0.0 0.00 0.00 0.00 96 1015.5
20260902123410 71 355 0.0 0.0 0.00 0.00 0.00 96 1015.7
20260902122933 71 355 0.0 0.0 0.00 0.00 0.00 97 1015.7
20260902122412 71 355 0.0 0.0 0.00 0.00 0.00 96 1016.0
20260902121940 71 355 0.0 0.0 0.00 0.00 0.00 96 1015.6
20260902121414 71 360 0.0 0.0 0.00 0.00 0.00 96 1015.0
20260902120910 71 25 0.0 2.0 0.00 0.00 0.00 96 1014.8
20260902120425 71 101 0.0 2.0 0.00 0.00 0.00 96 1015.1
20260902115927 71 101 0.0 1.0 0.00 0.00 0.00 96 1014.8
20260902115415 71 101 0.0 0.0 0.00 0.00 0.00 96 1015.0
20260902114924 71 101 0.0 0.0 0.00 0.00 0.00 96 1014.9
20260902114431 71 101 0.0 3.0 0.00 0.00 0.00 96 1014.8
20260902113924 71 94 1.0 5.0 0.00 0.00 0.00 96 1014.3
20260902113411 71 117 1.0 3.0 0.00 0.00 0.00 96 1014.0
20260902112918 70 126 0.0 5.0 0.00 0.00 0.00 96 1014.0
20260902112433 70 119 1.0 5.0 0.00 0.00 0.00 96 1014.1
20260902111915 70 128 0.0 3.0 0.00 0.00 0.00 96 1014.2
20260902111444 70 131 0.0 2.0 0.00 0.00 0.00 96 1014.4
20260902110922 70 131 0.0 3.0 0.00 0.00 0.00 96 1014.5
20260902110448 70 131 1.0 7.0 0.00 0.00 0.00 96 1014.3
20260902105923 70 132 2.0 7.0 0.00 0.00 0.00 96 1014.1
20260902105431 70 133 1.0 4.0 0.00 0.00 0.00 96 1014.2
20260902104927 70 129 0.0 3.0 0.00 0.00 0.00 96 1014.3
20260902104445 70 105 0.0 4.0 0.00 0.00 0.00 96 1014.3
20260902103924 70 120 1.0 4.0 0.00 0.00 0.00 96 1014.2
20260902103427 70 130 0.0 2.0 0.00 0.00 0.00 96 1014.1
20260902102931 70 123 0.0 0.0 0.00 0.00 0.00 96 1014.2
20260902102412 70 114 0.0 0.0 0.00 0.00 0.00 96 1014.2
20260902101923 70 118 0.0 3.0 0.00 0.00 0.00 96 1014.3
20260902101412 70 124 1.0 6.0 0.00 0.00 0.00 96 1014.2
20260902100932 70 114 1.0 8.0 0.00 0.00 0.00 96 1014.4
20260902100417 70 111 5.0 8.0 0.00 0.00 0.00 96 1014.2
20260902095910 70 109 4.0 7.0 0.00 0.00 0.00 96 1014.3
20260902095411 69 126 3.0 7.0 0.00 0.00 0.00 96 1014.5
20260902094937 69 113 2.0 5.0 0.00 0.00 0.00 96 1014.7
20260902094417 68 134 0.0 0.0 0.00 0.00 0.00 95 1014.9
20260902093910 68 123 0.0 0.0 0.00 0.00 0.00 95 1015.0
20260902093416 68 123 0.0 0.0 0.00 0.00 0.00 95 1015.0
20260902092907 68 123 0.0 0.0 0.00 0.00 0.00 95 1014.9
20260902092411 68 123 0.0 0.0 0.00 0.00 0.00 95 1014.8
20260902091931 68 125 0.0 0.0 0.00 0.00 0.00 95 1014.7
20260902091500 68 125 0.0 0.0 0.00 0.00 0.00 95 1014.8
20260902090928 68 125 0.0 0.0 0.00 0.00 0.00 95 1014.9
20260902090418 68 125 0.0 0.0 0.00 0.00 0.00 95 1014.9
20260902085936 68 125 0.0 0.0 0.00 0.01 0.00 95 1014.9
20260902085418 68 125 0.0 0.0 0.00 0.01 0.00 95 1014.8
20260902084925 68 125 0.0 0.0 0.00 0.01 0.00 95 1014.9
20260902084430 68 125 0.0 0.0 0.00 0.01 0.00 95 1014.9
20260902083924 68 125 0.0 0.0 0.00 0.01 0.00 94 1015.0
20260902083500 68 125 0.0 0.0 0.00 0.01 0.00 94 1015.2
20260902082923 68 125 0.0 0.0 0.00 0.01 0.00 94 1015.3
20260902082408 68 125 0.0 0.0 0.00 0.01 0.00 94 1015.3
20260902081909 68 125 0.0 0.0 0.00 0.01 0.00 94 1015.4
20260902081412 68 125 0.0 0.0 0.00 0.01 0.00 95 1015.3
20260902080922 68 125 0.0 0.0 0.00 0.01 0.00 94 1015.3
20260902080432 68 125 0.0 0.0 0.00 0.01 0.00 95 1015.4
20260902075925 68 125 0.0 0.0 0.00 0.01 0.00 94 1015.3
20260902075405 68 125 0.0 0.0 0.00 0.01 0.00 94 1015.4
20260902074943 69 125 0.0 0.0 0.00 0.01 0.00 94 1015.3
20260902074430 69 125 0.0 0.0 0.00 0.01 0.00 94 1015.4
20260902073928 69 125 0.0 0.0 0.00 0.01 0.00 94 1015.4
20260902073438 69 125 0.0 0.0 0.00 0.01 0.00 94 1015.4
20260902072913 69 125 0.0 0.0 0.00 0.01 0.00 94 1015.4
20260902072444 69 125 0.0 0.0 0.00 0.01 0.00 94 1015.3
20260902071923 69 125 0.0 0.0 0.00 0.01 0.00 94 1015.4
20260902071442 69 125 0.0 0.0 0.00 0.01 0.00 94 1015.5
20260902070915 69 125 0.0 0.0 0.00 0.01 0.00 94 1015.5
20260902070442 69 125 0.0 0.0 0.00 0.01 0.00 94 1015.4
20260902065912 69 125 0.0 0.0 0.00 0.01 0.00 94 1015.3
20260902065436 69 125 0.0 1.0 0.00 0.01 0.00 94 1015.1
20260902064931 69 125 0.0 1.0 0.00 0.01 0.00 94 1015.0
20260902064426 69 125 0.0 0.0 0.00 0.01 0.00 94 1015.2
20260902063933 69 125 0.0 0.0 0.00 0.01 0.00 94 1015.3
20260902063425 69 125 0.0 0.0 0.00 0.01 0.00 94 1015.4
20260902062939 70 125 0.0 0.0 0.00 0.01 0.00 94 1015.4
20260902062416 70 125 0.0 0.0 0.00 0.01 0.00 94 1015.5
20260902061937 70 125 0.0 0.0 0.00 0.01 0.00 94 1015.6
20260902061430 70 125 0.0 0.0 0.00 0.01 0.00 94 1015.6
20260902060914 70 125 0.0 0.0 0.00 0.01 0.00 94 1015.6
20260902060414 70 125 0.0 0.0 0.00 0.01 0.00 94 1015.6
20260902055947 70 125 0.0 0.0 0.00 0.06 0.00 94 1015.7
20260902055438 70 125 0.0 0.0 0.00 0.06 0.00 94 1015.7
20260902054916 70 125 0.0 0.0 0.00 0.06 0.00 94 1015.6
20260902054417 70 125 0.0 4.0 0.00 0.06 0.00 94 1015.8
20260902053922 70 125 1.0 4.0 0.00 0.06 0.00 94 1015.7
20260902053414 70 122 2.0 4.0 0.00 0.06 0.00 94 1015.7
20260902052920 70 118 0.0 3.0 0.00 0.06 0.00 94 1015.8
20260902052445 70 115 0.0 2.0 0.00 0.06 0.00 94 1015.7
20260902051915 70 115 0.0 2.0 0.00 0.06 0.00 94 1015.8
20260902051436 70 88 0.0 0.0 0.00 0.06 0.00 94 1015.7
20260902050916 70 75 0.0 0.0 0.00 0.06 0.00 94 1015.8
20260902050408 70 75 0.0 0.0 0.00 0.06 0.00 93 1015.7
20260902045914 71 77 0.0 0.0 0.00 0.06 0.00 93 1015.6
20260902045409 71 77 0.0 0.0 0.00 0.06 0.00 93 1015.6
20260902044917 71 77 0.0 0.0 0.00 0.06 0.00 93 1015.7
20260902044433 71 77 0.0 0.0 0.00 0.06 0.00 93 1015.7
20260902043916 71 77 0.0 0.0 0.00 0.06 0.00 93 1015.6
20260902043446 71 76 0.0 0.0 0.00 0.06 0.00 93 1015.8
20260902042927 71 76 0.0 0.0 0.00 0.06 0.00 93 1015.7
20260902042420 71 77 0.0 0.0 0.00 0.06 0.00 93 1015.6
20260902041926 71 77 0.0 0.0 0.00 0.06 0.00 93 1015.6
20260902041414 71 76 0.0 0.0 0.00 0.06 0.00 93 1015.6
20260902040923 71 76 0.0 0.0 0.00 0.06 0.00 93 1015.6
20260902040424 72 76 0.0 0.0 0.00 0.06 0.00 93 1015.5
20260902035938 72 77 0.0 0.0 0.00 0.06 0.06 93 1015.6
20260902035438 72 77 0.0 0.0 0.00 0.06 0.06 93 1015.5
20260902034919 72 77 0.0 0.0 0.00 0.06 0.06 93 1015.5
20260902034433 72 77 0.0 0.0 0.00 0.06 0.06 93 1015.6
20260902033943 72 77 0.0 0.0 0.00 0.06 0.06 93 1015.5
20260902033415 72 77 0.0 0.0 0.00 0.06 0.06 93 1015.5
20260902032942 72 77 0.0 0.0 0.00 0.06 0.06 93 1015.5
20260902032417 72 77 0.0 0.0 0.00 0.06 0.06 93 1015.6
20260902031936 72 77 0.0 0.0 0.00 0.06 0.06 93 1015.6
20260902031418 72 77 0.0 0.0 0.00 0.06 0.06 93 1015.6
20260902030911 73 77 0.0 0.0 0.00 0.06 0.06 93 1015.6
20260902030415 73 77 0.0 0.0 0.00 0.06 0.06 93 1015.6
20260902025941 73 77 0.0 0.0 0.00 0.06 0.06 93 1015.6
20260902025429 73 73 0.0 0.0 0.00 0.06 0.06 92 1015.6
20260902024923 73 73 0.0 0.0 0.00 0.06 0.06 92 1015.6
20260902024424 73 73 0.0 0.0 0.00 0.06 0.06 92 1015.6
20260902023919 73 73 0.0 0.0 0.00 0.06 0.06 92 1015.7
20260902023424 73 73 0.0 0.0 0.00 0.06 0.06 92 1015.7
20260902022922 73 73 0.0 0.0 0.00 0.06 0.06 92 1015.6
20260902022438 73 25 0.0 0.0 0.00 0.06 0.06 92 1015.7
20260902021936 73 15 0.0 0.0 0.00 0.06 0.06 92 1015.6
20260902021430 73 15 0.0 3.0 0.00 0.06 0.06 92 1015.7
20260902020919 73 15 0.0 5.0 0.00 0.06 0.06 92 1015.7
20260902020406 73 16 2.0 5.0 0.00 0.06 0.06 92 1015.7
20260902015952 73 13 3.0 4.0 0.00 0.06 0.06 92 1015.6
20260902015457 73 40 2.0 5.0 0.00 0.06 0.06 92 1015.8
20260902014920 73 19 3.0 5.0 0.00 0.06 0.06 91 1015.8
20260902014429 73 15 4.0 5.0 0.00 0.06 0.06 91 1015.7
20260902013948 74 30 0.0 0.0 0.00 0.06 0.06 91 1015.6
20260902013434 74 24 0.0 0.0 0.00 0.06 0.06 91 1015.7
20260902012919 74 24 0.0 0.0 0.00 0.06 0.06 91 1015.6
20260902012432 74 25 0.0 4.0 0.00 0.06 0.06 91 1015.6
20260902011923 74 36 2.0 4.0 0.00 0.06 0.06 90 1015.5
20260902011410 74 17 1.0 4.0 0.00 0.06 0.06 90 1015.5
20260902010919 74 355 0.0 3.0 0.00 0.06 0.06 90 1015.5
20260902010432 74 351 0.0 2.0 0.00 0.06 0.06 90 1015.4
20260902005933 74 351 0.0 3.0 0.00 0.07 0.06 89 1015.3
20260902005417 75 351 0.0 2.0 0.00 0.07 0.06 89 1015.3
20260902004923 75 350 0.0 0.0 0.00 0.07 0.06 89 1015.1
20260902004413 75 348 0.0 0.0 0.00 0.07 0.06 88 1015.0
20260902003917 75 348 0.0 0.0 0.00 0.07 0.06 88 1015.0
20260902003441 75 348 0.0 0.0 0.00 0.07 0.06 88 1014.8
20260902002928 75 348 0.0 0.0 0.00 0.07 0.06 87 1014.7
20260902002432 75 348 0.0 0.0 0.00 0.07 0.06 87 1014.5
20260902001917 76 348 0.0 0.0 0.00 0.07 0.06 87 1014.4
20260902001409 76 348 0.0 0.0 0.00 0.07 0.06 86 1014.3
20260902000910 76 348 0.0 0.0 0.00 0.07 0.06 86 1014.2
20260902000421 76 348 0.0 0.0 0.00 0.07 0.06 86 1014.2
20260901235928 76 348 0.0 0.0 0.00 0.07 0.06 85 1014.2
20260901235417 76 348 0.0 0.0 0.00 0.07 0.06 85 1014.2
20260901234936 76 348 0.0 0.0 0.00 0.07 0.06 85 1014.3
20260901234434 77 348 0.0 0.0 0.00 0.07 0.06 84 1014.2
20260901233937 77 348 0.0 0.0 0.00 0.07 0.06 84 1014.3
20260901233424 77 348 0.0 0.0 0.00 0.07 0.06 84 1014.3
20260901232951 77 348 0.0 0.0 0.00 0.07 0.06 84 1014.4
20260901232411 77 348 0.0 0.0 0.00 0.07 0.06 84 1014.3
20260901231938 77 348 0.0 0.0 0.00 0.07 0.06 84 1014.3
20260901231419 78 348 0.0 0.0 0.00 0.07 0.06 84 1014.4
20260901230958 78 348 0.0 0.0 0.00 0.07 0.06 84 1014.5
20260901230410 78 348 0.0 0.0 0.00 0.07 0.06 84 1014.5
20260901225931 78 348 0.0 0.0 0.00 0.08 0.06 83 1014.6
20260901225428 78 348 0.0 3.0 0.00 0.08 0.06 83 1014.6
20260901224912 78 348 1.0 4.0 0.00 0.08 0.06 83 1014.5
20260901224411 78 348 1.0 5.0 0.00 0.08 0.06 84 1014.6
20260901223915 78 347 2.0 6.0 0.00 0.08 0.06 84 1014.5
20260901223434 79 28 3.0 6.0 0.00 0.08 0.06 84 1014.5
20260901222932 79 14 4.0 6.0 0.00 0.08 0.06 84 1014.5
20260901222442 79 333 4.0 5.0 0.00 0.08 0.06 84 1014.5
20260901221920 79 19 3.0 4.0 0.00 0.08 0.06 84 1014.3
20260901221418 79 355 1.0 5.0 0.00 0.08 0.06 84 1014.3
20260901220922 79 344 3.0 5.0 0.00 0.08 0.06 84 1014.3
20260901220435 79 342 2.0 6.0 0.00 0.08 0.06 84 1014.3
20260901215926 79 345 4.0 7.0 0.00 0.08 0.06 83 1014.3
20260901215428 79 39 4.0 6.0 0.00 0.08 0.06 83 1014.3
20260901214918 79 39 4.0 7.0 0.00 0.08 0.06 83 1014.3
20260901214423 79 27 4.0 7.0 0.00 0.08 0.06 83 1014.2
20260901213957 80 32 3.0 6.0 0.00 0.08 0.06 83 1014.2
20260901213418 80 5 3.0 6.0 0.00 0.08 0.06 83 1014.1
20260901212913 80 24 3.0 5.0 0.00 0.08 0.06 83 1014.1
20260901212441 80 23 3.0 5.0 0.00 0.08 0.06 83 1014.1
20260901211958 80 360 3.0 4.0 0.00 0.08 0.06 82 1014.1
20260901211409 80 355 1.0 6.0 0.00 0.08 0.06 82 1014.1
20260901210919 80 349 4.0 6.0 0.00 0.08 0.06 82 1014.1
20260901210458 80 275 1.0 5.0 0.00 0.08 0.06 82 1014.0
20260901205931 80 337 2.0 6.0 0.00 0.17 0.06 82 1014.0
20260901205423 80 21 3.0 6.0 0.00 0.17 0.06 82 1014.0
20260901204916 80 21 3.0 6.0 0.00 0.17 0.06 82 1014.1
20260901204418 80 355 2.0 5.0 0.00 0.17 0.06 82 1014.3